Hourly Data Report for July 31, 2017

TORONTO CITY
ONTARIO

43°40'00.000" N
79°24'00.000" W
112.50 m
6158355
71508
XTO

Download Data

Hourly Data (July 2017)
Hourly Data Report for July 31, 2017
TIME
LST
Temp Definition
°C
Dew Point Definition
°C
Rel Hum Definition
%
Precip. Amount Definition
mm

Wind Dir Definition
10's deg

Wind Spd Definition
km/h
Visibility Definition
km
Stn Press Definition
kPa
Hmdx Definition


Wind Chill Definition


Weather Definition


00:00 21.2 13.9 63 0.0 LegendMM LegendMM   100.53 25   LegendNANA
01:00 20.2 13.2 64 0.0 LegendMM LegendMM   100.52     LegendNANA
02:00 19.7 13.1 66 0.0 LegendMM LegendMM   100.49     LegendNANA
03:00 19.0 13.0 68 0.0 LegendMM LegendMM   100.49     LegendNANA
04:00 18.9 13.0 69 0.0 LegendMM LegendMM   100.50     LegendNANA
05:00 18.5 13.4 72 0.0 LegendMM LegendMM   100.53     LegendNANA
06:00 18.9 13.6 71 0.0 LegendMM LegendMM   100.54     LegendNANA
07:00 21.5 13.7 61 0.0 LegendMM LegendMM   100.56 25   LegendNANA
08:00 22.8 14.8 61 0.0 LegendMM LegendMM   100.56 27   LegendNANA
09:00 25.4 16.3 57 0.0 LegendMM LegendMM   100.57 30   LegendNANA
10:00 26.3 16.4 54 0.0 LegendMM LegendMM   100.57 31   LegendNANA
11:00 26.9 16.5 53 0.0 LegendMM LegendMM   100.55 32   LegendNANA
12:00 28.0 16.9 51 0.0 LegendMM LegendMM   100.50 33   LegendNANA
13:00 28.1 17.2 51 0.0 LegendMM LegendMM   100.46 34   LegendNANA
14:00 27.6 17.5 54 0.0 LegendMM LegendMM   100.44 33   LegendNANA
15:00 27.2 18.4 59 0.0 LegendMM LegendMM   100.41 34   LegendNANA
16:00 28.6 17.6 51 0.0 LegendMM LegendMM   100.40 34   LegendNANA
17:00 27.4 18.3 58 0.0 LegendMM LegendMM   100.38 34   LegendNANA
18:00 25.0 16.8 60 0.0 LegendMM LegendMM   100.42 30   LegendNANA
19:00 24.9 16.7 60 0.0 LegendMM LegendMM   100.42 30   LegendNANA
20:00 24.0 17.0 65 0.0 LegendMM LegendMM   100.44 29   LegendNANA
21:00 23.0 17.1 69 0.0 LegendMM LegendMM   100.50 28   LegendNANA
22:00 23.8 17.4 67 0.0 LegendMM LegendMM   100.47 29   LegendNANA
23:00 23.0 17.1 70 0.0 LegendMM LegendMM   100.47 28   LegendNANA

Notes on Data Quality.

Legend

  • E = Estimated
  • M = Missing
  • NA = Not Available*
  • [empty] = Indicates an unobserved value
Date modified: